sat.trackr.live / text

‹ back to catalog

STARLINK-5950

NORAD 56913 · 2023-083AP

PAYLOAD ACTIVE UNKNOWN

§ Identity

Operator
Country
US
Launch date
2023-06-12
Launch site
AFETR
Launch vehicle
Mass (kg)
RCS (m²)

Purposes: comms

External: N2YO · Heavens-Above · Gunter

§ Orbital elements

Epoch: 2026-05-24T22:55:50.587968Z

Period
94.27 min
Inclination
43.0022°
Eccentricity
0.0001088
Mean motion
15.27575025 rev/d
Perigee alt
482.3 km
Apogee alt
483.8 km
Semi-major
6,861.2 km
B*
8.4415e-6
RAAN
359.8345°
Arg perigee
264.0846°
Mean anomaly
95.9882°
Rev number
16,346

§ Raw data

STARLINK-59501 56913U 23083AP  26144.95544662 -.00000030  00000+0  84415-5 0  99982 56913  43.0022 359.8345 0001088 264.0846  95.9882 15.27575025163461

JSON: /api/v1/satellites/56913 · /tle

For live sub-satellite position, see the globe view (requires WebGL).

§ Visibility from observer

Set your observer location to see the next 7 days of passes ≥ 10°. The values pass through the URL so the page stays shareable.

No JS? Fill the form by hand. The geolocation button needs JavaScript.